| time (UTC) | temp F | wind direction | speed MPH | gust MPH | rain 1hr in | rain 24hr in | rain mn in | humidity % | barometer mb |
| 20260905163805 | 58 | 210 | 0.0 | 0.0 | 0.00 | 0.01 | 0.01 | 93 | 1019.9 |
| 20260905163302 | 58 | 207 | 0.0 | 0.0 | 0.00 | 0.01 | 0.01 | 93 | 1019.9 |
| 20260905162757 | 58 | 205 | 0.0 | 0.0 | 0.00 | 0.01 | 0.01 | 93 | 1019.6 |
| 20260905162256 | 58 | 209 | 0.0 | 0.0 | 0.00 | 0.01 | 0.01 | 94 | 1019.9 |
| 20260905161751 | 57 | 212 | 1.0 | 1.0 | 0.00 | 0.01 | 0.01 | 95 | 1019.9 |
| 20260905161250 | 58 | 200 | 1.0 | 1.0 | 0.00 | 0.01 | 0.01 | 95 | 1019.9 |
| 20260905160748 | 57 | 204 | 0.0 | 1.0 | 0.00 | 0.01 | 0.01 | 95 | 1019.9 |
| 20260905160243 | 57 | 206 | 0.0 | 0.0 | 0.00 | 0.01 | 0.01 | 96 | 1019.9 |
| 20260905155738 | 57 | 206 | 0.0 | 1.0 | 0.00 | 0.01 | 0.01 | 96 | 1019.9 |
| 20260905155236 | 57 | 180 | 1.0 | 2.0 | 0.00 | 0.01 | 0.01 | 97 | 1019.9 |
| 20260905154731 | 56 | 209 | 0.0 | 0.0 | 0.00 | 0.01 | 0.01 | 97 | 1019.9 |
| 20260905154227 | 56 | 175 | 1.0 | 2.0 | 0.00 | 0.01 | 0.01 | 97 | 1019.9 |
| 20260905153723 | 56 | 196 | 0.0 | 1.0 | 0.00 | 0.01 | 0.01 | 98 | 1019.9 |
| 20260905153219 | 56 | 209 | 0.0 | 0.0 | 0.00 | 0.01 | 0.01 | 98 | 1019.9 |
| 20260905152718 | 56 | 132 | 0.0 | 1.0 | 0.00 | 0.01 | 0.01 | 98 | 1019.9 |
| 20260905152213 | 56 | 208 | 0.0 | 0.0 | 0.00 | 0.01 | 0.01 | 99 | 1019.9 |
| 20260905151712 | 56 | 170 | 0.0 | 1.0 | 0.00 | 0.01 | 0.01 | 99 | 1019.6 |
| 20260905151209 | 56 | 159 | 0.0 | 0.0 | 0.00 | 0.01 | 0.01 | 99 | 1019.9 |
| 20260905150703 | 56 | 198 | 0.0 | 0.0 | 0.00 | 0.01 | 0.01 | 99 | 1019.9 |
| 20260905150202 | 56 | 211 | 0.0 | 1.0 | 0.00 | 0.01 | 0.01 | 99 | 1019.6 |
| 20260905145700 | 56 | 211 | 0.0 | 0.0 | 0.00 | 0.01 | 0.01 | 99 | 1019.9 |
| 20260905145155 | 56 | 183 | 0.0 | 0.0 | 0.00 | 0.01 | 0.01 | 99 | 1019.9 |
| 20260905144655 | 55 | 203 | 0.0 | 0.0 | 0.00 | 0.01 | 0.01 | 99 | 1019.9 |
| 20260905144155 | 55 | 205 | 0.0 | 0.0 | 0.00 | 0.01 | 0.01 | 99 | 1019.9 |
| 20260905143654 | 55 | 206 | 0.0 | 0.0 | 0.00 | 0.01 | 0.01 | 99 | 1019.9 |
| 20260905143148 | 55 | 201 | 0.0 | 0.0 | 0.00 | 0.01 | 0.01 | 99 | 1019.6 |
| 20260905142647 | 55 | 203 | 0.0 | 0.0 | 0.00 | 0.01 | 0.01 | 99 | 1019.6 |
| 20260905142142 | 55 | 206 | 0.0 | 0.0 | 0.00 | 0.01 | 0.01 | 99 | 1019.9 |
| 20260905141636 | 55 | 207 | 0.0 | 0.0 | 0.00 | 0.01 | 0.01 | 99 | 1019.6 |
| 20260905141132 | 55 | 209 | 0.0 | 0.0 | 0.00 | 0.01 | 0.01 | 99 | 1019.6 |
| 20260905140627 | 55 | 208 | 0.0 | 0.0 | 0.00 | 0.01 | 0.01 | 99 | 1019.6 |
| 20260905140126 | 55 | 210 | 0.0 | 0.0 | 0.00 | 0.01 | 0.01 | 99 | 1019.6 |
| 20260905135617 | 55 | 210 | 0.0 | 0.0 | 0.00 | 0.01 | 0.01 | 99 | 1019.6 |
| 20260905135112 | 55 | 209 | 0.0 | 0.0 | 0.00 | 0.01 | 0.01 | 99 | 1019.6 |
| 20260905134606 | 55 | 211 | 0.0 | 0.0 | 0.00 | 0.01 | 0.01 | 99 | 1019.9 |
| 20260905134104 | 55 | 212 | 0.0 | 0.0 | 0.00 | 0.01 | 0.01 | 99 | 1019.9 |
| 20260905133600 | 55 | 212 | 0.0 | 0.0 | 0.00 | 0.01 | 0.01 | 99 | 1019.6 |
| 20260905133055 | 55 | 212 | 0.0 | 0.0 | 0.00 | 0.01 | 0.01 | 99 | 1019.6 |
| 20260905132555 | 55 | 212 | 0.0 | 0.0 | 0.00 | 0.01 | 0.01 | 99 | 1019.6 |
| 20260905132049 | 55 | 212 | 0.0 | 0.0 | 0.00 | 0.01 | 0.01 | 99 | 1019.6 |
| 20260905131545 | 55 | 212 | 0.0 | 0.0 | 0.00 | 0.01 | 0.01 | 99 | 1019.6 |
| 20260905131040 | 55 | 209 | 0.0 | 0.0 | 0.00 | 0.01 | 0.01 | 99 | 1019.6 |
| 20260905130539 | 55 | 210 | 0.0 | 0.0 | 0.00 | 0.01 | 0.01 | 99 | 1019.6 |
| 20260905130034 | 55 | 209 | 0.0 | 0.0 | 0.00 | 0.01 | 0.01 | 99 | 1019.6 |
| 20260905125534 | 55 | 209 | 0.0 | 0.0 | 0.00 | 0.01 | 0.01 | 99 | 1019.3 |
| 20260905125029 | 55 | 210 | 0.0 | 0.0 | 0.00 | 0.01 | 0.01 | 99 | 1019.6 |
| 20260905124526 | 55 | 199 | 0.0 | 0.0 | 0.00 | 0.01 | 0.01 | 99 | 1019.3 |
| 20260905124022 | 55 | 214 | 0.0 | 0.0 | 0.00 | 0.01 | 0.01 | 99 | 1019.3 |
| 20260905123517 | 55 | 215 | 0.0 | 0.0 | 0.00 | 0.01 | 0.01 | 99 | 1018.9 |
| 20260905123013 | 55 | 216 | 0.0 | 0.0 | 0.00 | 0.01 | 0.01 | 99 | 1019.3 |
| 20260905122507 | 55 | 216 | 0.0 | 0.0 | 0.00 | 0.01 | 0.01 | 99 | 1018.9 |
| 20260905122003 | 55 | 210 | 0.0 | 0.0 | 0.00 | 0.01 | 0.01 | 99 | 1019.3 |
| 20260905121457 | 55 | 209 | 0.0 | 0.0 | 0.00 | 0.01 | 0.01 | 99 | 1019.3 |
| 20260905120956 | 55 | 191 | 0.0 | 0.0 | 0.00 | 0.01 | 0.01 | 99 | 1019.3 |
| 20260905120451 | 55 | 201 | 0.0 | 0.0 | 0.00 | 0.01 | 0.01 | 99 | 1019.3 |
| 20260905115946 | 55 | 211 | 0.0 | 0.0 | 0.00 | 0.01 | 0.01 | 99 | 1019.3 |
| 20260905115445 | 55 | 212 | 0.0 | 0.0 | 0.00 | 0.01 | 0.01 | 99 | 1019.6 |
| 20260905114941 | 55 | 211 | 0.0 | 0.0 | 0.00 | 0.01 | 0.01 | 99 | 1019.3 |
| 20260905114440 | 55 | 210 | 0.0 | 0.0 | 0.00 | 0.01 | 0.01 | 99 | 1019.3 |
| 20260905113939 | 55 | 210 | 0.0 | 0.0 | 0.00 | 0.01 | 0.01 | 99 | 1019.3 |
| 20260905113434 | 55 | 210 | 0.0 | 0.0 | 0.00 | 0.01 | 0.01 | 99 | 1019.3 |
| 20260905112929 | 56 | 210 | 0.0 | 0.0 | 0.00 | 0.01 | 0.01 | 99 | 1019.3 |
| 20260905112425 | 56 | 210 | 0.0 | 0.0 | 0.00 | 0.01 | 0.01 | 99 | 1019.3 |
| 20260905111919 | 55 | 210 | 0.0 | 0.0 | 0.00 | 0.01 | 0.01 | 99 | 1019.3 |
| 20260905111414 | 56 | 210 | 0.0 | 0.0 | 0.00 | 0.01 | 0.01 | 99 | 1019.3 |
| 20260905110908 | 55 | 214 | 0.0 | 0.0 | 0.00 | 0.01 | 0.01 | 99 | 1019.3 |
| 20260905110402 | 55 | 214 | 0.0 | 0.0 | 0.00 | 0.01 | 0.01 | 99 | 1019.3 |
| 20260905105857 | 55 | 215 | 0.0 | 0.0 | 0.00 | 0.01 | 0.01 | 99 | 1019.3 |
| 20260905105356 | 56 | 215 | 0.0 | 0.0 | 0.00 | 0.01 | 0.01 | 99 | 1019.3 |
| 20260905104856 | 56 | 217 | 0.0 | 0.0 | 0.00 | 0.01 | 0.01 | 99 | 1019.3 |
| 20260905104352 | 56 | 218 | 0.0 | 0.0 | 0.00 | 0.01 | 0.01 | 99 | 1019.3 |
| 20260905103847 | 55 | 217 | 0.0 | 0.0 | 0.00 | 0.01 | 0.01 | 99 | 1019.3 |
| 20260905103342 | 55 | 212 | 0.0 | 0.0 | 0.00 | 0.01 | 0.01 | 99 | 1019.3 |
| 20260905102838 | 55 | 212 | 0.0 | 0.0 | 0.00 | 0.01 | 0.01 | 99 | 1019.3 |
| 20260905102334 | 55 | 211 | 0.0 | 0.0 | 0.07 | 0.01 | 0.01 | 99 | 1019.3 |
| 20260905101829 | 55 | 211 | 0.0 | 0.0 | 0.07 | 0.01 | 0.01 | 99 | 1019.3 |
| 20260905101327 | 55 | 210 | 0.0 | 0.0 | 0.00 | 0.00 | 0.00 | 99 | 1019.3 |
| 20260905100822 | 55 | 212 | 0.0 | 0.0 | 0.00 | 0.00 | 0.00 | 99 | 1019.3 |
| 20260905100318 | 55 | 209 | 0.0 | 0.0 | 0.00 | 0.00 | 0.00 | 98 | 1018.9 |
| 20260905095817 | 55 | 210 | 0.0 | 0.0 | 0.00 | 0.00 | 0.00 | 98 | 1019.3 |
| 20260905095317 | 55 | 211 | 0.0 | 0.0 | 0.00 | 0.00 | 0.00 | 98 | 1019.3 |
| 20260905094811 | 55 | 211 | 0.0 | 0.0 | 0.00 | 0.00 | 0.00 | 98 | 1019.3 |
| 20260905094308 | 55 | 211 | 0.0 | 0.0 | 0.00 | 0.00 | 0.00 | 98 | 1018.9 |
| 20260905093806 | 55 | 210 | 0.0 | 0.0 | 0.00 | 0.00 | 0.00 | 98 | 1019.3 |
| 20260905093302 | 55 | 209 | 0.0 | 0.0 | 0.00 | 0.00 | 0.00 | 98 | 1019.3 |
| 20260905092758 | 55 | 209 | 0.0 | 0.0 | 0.00 | 0.00 | 0.00 | 98 | 1019.3 |
| 20260905092253 | 54 | 212 | 0.0 | 0.0 | 0.00 | 0.00 | 0.00 | 98 | 1018.9 |
| 20260905091752 | 54 | 212 | 0.0 | 0.0 | 0.00 | 0.00 | 0.00 | 98 | 1019.3 |
| 20260905091247 | 54 | 214 | 0.0 | 0.0 | 0.00 | 0.00 | 0.00 | 97 | 1019.3 |
| 20260905090746 | 54 | 215 | 0.0 | 0.0 | 0.00 | 0.00 | 0.00 | 97 | 1018.9 |
| 20260905090242 | 54 | 214 | 0.0 | 0.0 | 0.00 | 0.00 | 0.00 | 97 | 1018.9 |
| 20260905085741 | 54 | 214 | 0.0 | 0.0 | 0.00 | 0.00 | 0.00 | 97 | 1018.9 |
| 20260905085241 | 54 | 214 | 0.0 | 0.0 | 0.00 | 0.00 | 0.00 | 97 | 1018.9 |
| 20260905084736 | 55 | 215 | 0.0 | 0.0 | 0.00 | 0.00 | 0.00 | 97 | 1018.9 |
| 20260905084235 | 55 | 212 | 0.0 | 0.0 | 0.00 | 0.00 | 0.00 | 97 | 1019.3 |
| 20260905083730 | 55 | 215 | 0.0 | 0.0 | 0.00 | 0.00 | 0.00 | 96 | 1018.9 |
| 20260905083226 | 55 | 215 | 0.0 | 0.0 | 0.00 | 0.00 | 0.00 | 96 | 1018.9 |
| 20260905082722 | 55 | 215 | 0.0 | 0.0 | 0.00 | 0.00 | 0.00 | 96 | 1018.9 |
| 20260905082217 | 55 | 214 | 0.0 | 0.0 | 0.00 | 0.00 | 0.00 | 96 | 1018.9 |
| 20260905081712 | 55 | 215 | 0.0 | 0.0 | 0.00 | 0.00 | 0.00 | 96 | 1018.9 |
| 20260905081207 | 55 | 212 | 0.0 | 0.0 | 0.00 | 0.00 | 0.00 | 96 | 1018.6 |
| 20260905080706 | 55 | 210 | 0.0 | 0.0 | 0.00 | 0.00 | 0.00 | 95 | 1018.9 |
| 20260905080201 | 56 | 210 | 0.0 | 0.0 | 0.00 | 0.00 | 0.00 | 95 | 1018.9 |
| 20260905075700 | 56 | 209 | 0.0 | 0.0 | 0.00 | 0.00 | 0.00 | 95 | 1018.6 |
| 20260905075200 | 56 | 209 | 0.0 | 0.0 | 0.00 | 0.00 | 0.00 | 95 | 1018.6 |
| 20260905074658 | 56 | 195 | 0.0 | 0.0 | 0.00 | 0.00 | 0.00 | 95 | 1018.6 |
| 20260905074154 | 57 | 179 | 1.0 | 1.0 | 0.00 | 0.00 | 0.00 | 95 | 1018.6 |
| 20260905073650 | 56 | 191 | 0.0 | 0.0 | 0.00 | 0.00 | 0.00 | 95 | 1018.6 |
| 20260905073146 | 56 | 194 | 0.0 | 0.0 | 0.00 | 0.00 | 0.00 | 95 | 1018.6 |
| 20260905072645 | 56 | 208 | 0.0 | 0.0 | 0.00 | 0.00 | 0.00 | 95 | 1018.6 |
| 20260905072140 | 56 | 206 | 0.0 | 0.0 | 0.00 | 0.00 | 0.00 | 95 | 1018.6 |
| 20260905071637 | 56 | 206 | 0.0 | 0.0 | 0.00 | 0.00 | 0.00 | 95 | 1018.6 |
| 20260905071132 | 56 | 205 | 0.0 | 0.0 | 0.00 | 0.00 | 0.00 | 95 | 1018.6 |
| 20260905070627 | 56 | 209 | 0.0 | 0.0 | 0.00 | 0.00 | 0.00 | 95 | 1018.6 |
| 20260905070123 | 56 | 210 | 0.0 | 0.0 | 0.00 | 0.00 | 0.00 | 96 | 1018.6 |
| 20260905065621 | 56 | 209 | 0.0 | 0.0 | 0.00 | 0.28 | 0.28 | 96 | 1018.6 |
| 20260905065116 | 56 | 206 | 0.0 | 0.0 | 0.00 | 0.28 | 0.28 | 96 | 1018.6 |
| 20260905064611 | 56 | 209 | 0.0 | 0.0 | 0.00 | 0.28 | 0.28 | 96 | 1018.6 |
| 20260905064107 | 56 | 210 | 0.0 | 0.0 | 0.00 | 0.28 | 0.28 | 96 | 1018.6 |
| 20260905063605 | 56 | 214 | 0.0 | 0.0 | 0.00 | 0.28 | 0.28 | 96 | 1018.6 |
| 20260905063101 | 56 | 214 | 0.0 | 0.0 | 0.00 | 0.28 | 0.28 | 96 | 1018.6 |
| 20260905062556 | 56 | 213 | 0.0 | 0.0 | 0.00 | 0.28 | 0.28 | 96 | 1018.6 |
| 20260905062051 | 56 | 211 | 0.0 | 0.0 | 0.00 | 0.28 | 0.28 | 96 | 1018.2 |
| 20260905061546 | 56 | 209 | 0.0 | 0.0 | 0.00 | 0.28 | 0.28 | 96 | 1018.6 |
| 20260905061045 | 56 | 197 | 0.0 | 1.0 | 0.00 | 0.28 | 0.28 | 96 | 1018.6 |
| 20260905060541 | 56 | 209 | 0.0 | 0.0 | 0.00 | 0.28 | 0.28 | 96 | 1018.6 |
| 20260905060037 | 56 | 213 | 0.0 | 0.0 | 0.00 | 0.28 | 0.28 | 97 | 1018.6 |
| 20260905055535 | 56 | 204 | 0.0 | 0.0 | 0.00 | 0.28 | 0.28 | 97 | 1018.6 |
| 20260905055030 | 56 | 210 | 0.0 | 0.0 | 0.00 | 0.28 | 0.28 | 97 | 1018.6 |
| 20260905054525 | 56 | 215 | 0.0 | 0.0 | 0.00 | 0.28 | 0.28 | 96 | 1018.2 |
| 20260905054016 | 56 | 215 | 0.0 | 0.0 | 0.00 | 0.28 | 0.28 | 96 | 1018.2 |
| 20260905053515 | 57 | 215 | 0.0 | 0.0 | 0.00 | 0.28 | 0.28 | 96 | 1018.2 |
| 20260905053011 | 57 | 213 | 0.0 | 0.0 | 0.00 | 0.28 | 0.28 | 96 | 1018.2 |
| 20260905052510 | 57 | 214 | 0.0 | 0.0 | 0.00 | 0.28 | 0.28 | 96 | 1018.2 |
| 20260905052010 | 57 | 216 | 0.0 | 0.0 | 0.00 | 0.28 | 0.28 | 96 | 1017.9 |
| 20260905051506 | 57 | 214 | 0.0 | 0.0 | 0.00 | 0.28 | 0.28 | 96 | 1017.9 |
| 20260905051002 | 57 | 216 | 0.0 | 0.0 | 0.00 | 0.28 | 0.28 | 96 | 1018.2 |
| 20260905050458 | 57 | 217 | 0.0 | 0.0 | 0.00 | 0.28 | 0.28 | 95 | 1018.2 |
| 20260905045954 | 57 | 217 | 0.0 | 0.0 | 0.00 | 0.28 | 0.28 | 95 | 1017.9 |
| 20260905045449 | 57 | 215 | 0.0 | 0.0 | 0.00 | 0.28 | 0.28 | 95 | 1017.9 |
| 20260905044944 | 57 | 216 | 0.0 | 0.0 | 0.00 | 0.28 | 0.28 | 95 | 1018.2 |
| 20260905044439 | 57 | 202 | 0.0 | 0.0 | 0.00 | 0.28 | 0.28 | 95 | 1017.9 |
| 20260905043939 | 56 | 208 | 0.0 | 0.0 | 0.00 | 0.28 | 0.28 | 95 | 1017.9 |
| 20260905043438 | 56 | 212 | 0.0 | 0.0 | 0.00 | 0.28 | 0.28 | 94 | 1017.9 |
| 20260905042933 | 57 | 208 | 0.0 | 0.0 | 0.00 | 0.28 | 0.28 | 94 | 1018.2 |
| 20260905042427 | 57 | 205 | 0.0 | 0.0 | 0.00 | 0.28 | 0.28 | 94 | 1017.9 |
| 20260905041922 | 57 | 204 | 0.0 | 0.0 | 0.00 | 0.28 | 0.28 | 94 | 1017.9 |
| 20260905041418 | 57 | 194 | 0.0 | 0.0 | 0.00 | 0.28 | 0.28 | 94 | 1017.9 |
| 20260905040913 | 57 | 184 | 0.0 | 0.0 | 0.00 | 0.28 | 0.28 | 94 | 1017.6 |
| 20260905040412 | 57 | 179 | 2.0 | 2.0 | 0.00 | 0.28 | 0.28 | 94 | 1017.6 |
| 20260905035911 | 57 | 200 | 0.0 | 0.0 | 0.00 | 0.28 | 0.28 | 94 | 1017.6 |
| 20260905035407 | 57 | 211 | 0.0 | 0.0 | 0.00 | 0.28 | 0.28 | 94 | 1017.6 |
| 20260905034904 | 57 | 194 | 0.0 | 0.0 | 0.00 | 0.28 | 0.28 | 94 | 1017.6 |
| 20260905034359 | 57 | 200 | 0.0 | 0.0 | 0.00 | 0.28 | 0.28 | 94 | 1017.6 |
| 20260905033857 | 57 | 204 | 0.0 | 0.0 | 0.00 | 0.28 | 0.28 | 94 | 1017.2 |
| 20260905033353 | 57 | 208 | 0.0 | 0.0 | 0.00 | 0.28 | 0.28 | 94 | 1017.6 |
| 20260905032852 | 57 | 209 | 0.0 | 0.0 | 0.00 | 0.28 | 0.28 | 94 | 1017.2 |
| 20260905032348 | 58 | 206 | 0.0 | 0.0 | 0.00 | 0.28 | 0.28 | 93 | 1017.2 |
| 20260905031843 | 58 | 203 | 0.0 | 0.0 | 0.00 | 0.28 | 0.28 | 93 | 1017.2 |
| 20260905031339 | 58 | 204 | 0.0 | 0.0 | 0.00 | 0.28 | 0.28 | 93 | 1016.9 |
| 20260905030833 | 58 | 212 | 0.0 | 0.0 | 0.00 | 0.28 | 0.28 | 92 | 1017.2 |
| 20260905030330 | 58 | 211 | 0.0 | 0.0 | 0.00 | 0.28 | 0.28 | 92 | 1017.2 |
| 20260905025829 | 58 | 215 | 0.0 | 0.0 | 0.00 | 0.28 | 0.28 | 91 | 1017.2 |
| 20260905025324 | 58 | 200 | 0.0 | 0.0 | 0.00 | 0.28 | 0.28 | 91 | 1016.9 |
| 20260905024821 | 58 | 208 | 0.0 | 0.0 | 0.00 | 0.28 | 0.28 | 90 | 1016.9 |
| 20260905024315 | 58 | 204 | 0.0 | 0.0 | 0.00 | 0.28 | 0.28 | 90 | 1017.2 |
| 20260905023805 | 58 | 201 | 0.0 | 1.0 | 0.00 | 0.28 | 0.28 | 89 | 1017.2 |
| 20260905023300 | 59 | 186 | 0.0 | 0.0 | 0.00 | 0.28 | 0.28 | 89 | 1016.9 |
| 20260905022759 | 59 | 155 | 2.0 | 2.0 | 0.00 | 0.28 | 0.28 | 88 | 1017.2 |
| 20260905022255 | 59 | 176 | 0.0 | 0.0 | 0.00 | 0.28 | 0.28 | 88 | 1016.9 |
| 20260905021754 | 59 | 169 | 0.0 | 0.0 | 0.00 | 0.28 | 0.28 | 86 | 1017.2 |
| 20260905021249 | 60 | 197 | 0.0 | 0.0 | 0.00 | 0.28 | 0.28 | 85 | 1016.9 |
| 20260905020744 | 60 | 186 | 3.0 | 5.0 | 0.00 | 0.28 | 0.28 | 84 | 1017.2 |
| 20260905020239 | 60 | 145 | 5.0 | 7.0 | 0.00 | 0.28 | 0.28 | 82 | 1017.2 |
| 20260905015737 | 60 | 129 | 2.0 | 3.0 | 0.00 | 0.28 | 0.28 | 82 | 1017.2 |
| 20260905015233 | 61 | 166 | 1.0 | 3.0 | 0.00 | 0.28 | 0.28 | 81 | 1016.9 |
| 20260905014731 | 61 | 158 | 7.0 | 8.0 | 0.00 | 0.28 | 0.28 | 81 | 1016.9 |
| 20260905014227 | 61 | 121 | 6.0 | 8.0 | 0.00 | 0.28 | 0.28 | 81 | 1016.9 |
| 20260905013722 | 62 | 146 | 6.0 | 8.0 | 0.00 | 0.28 | 0.28 | 82 | 1016.9 |
| 20260905013218 | 62 | 172 | 6.0 | 7.0 | 0.00 | 0.28 | 0.28 | 81 | 1016.9 |
| 20260905012713 | 63 | 126 | 7.0 | 9.0 | 0.00 | 0.28 | 0.28 | 78 | 1016.9 |
| 20260905012209 | 63 | 199 | 0.0 | 0.0 | 0.00 | 0.28 | 0.28 | 76 | 1016.9 |
| 20260905011706 | 63 | 109 | 5.0 | 8.0 | 0.00 | 0.28 | 0.28 | 74 | 1016.9 |
| 20260905011202 | 63 | 160 | 3.0 | 6.0 | 0.00 | 0.28 | 0.28 | 76 | 1016.9 |
| 20260905010701 | 64 | 153 | 3.0 | 5.0 | 0.00 | 0.28 | 0.28 | 76 | 1016.9 |
| 20260905010157 | 64 | 176 | 0.0 | 0.0 | 0.00 | 0.28 | 0.28 | 77 | 1016.9 |
| 20260905005648 | 64 | 163 | 2.0 | 2.0 | 0.00 | 0.28 | 0.28 | 76 | 1016.5 |
| 20260905005143 | 64 | 122 | 1.0 | 2.0 | 0.00 | 0.28 | 0.28 | 75 | 1016.9 |
| 20260905004643 | 64 | 88 | 6.0 | 8.0 | 0.00 | 0.28 | 0.28 | 74 | 1016.5 |
| 20260905004138 | 64 | 188 | 0.0 | 0.0 | 0.00 | 0.28 | 0.28 | 73 | 1016.5 |
| 20260905003633 | 64 | 204 | 0.0 | 1.0 | 0.00 | 0.28 | 0.28 | 73 | 1016.5 |
| 20260905003124 | 64 | 196 | 0.0 | 1.0 | 0.00 | 0.28 | 0.28 | 72 | 1016.5 |
| 20260905002619 | 64 | 190 | 3.0 | 5.0 | 0.00 | 0.28 | 0.28 | 74 | 1016.2 |
| 20260905002114 | 64 | 107 | 6.0 | 10.0 | 0.00 | 0.28 | 0.28 | 72 | 1016.5 |
| 20260905001609 | 64 | 168 | 2.0 | 3.0 | 0.00 | 0.28 | 0.28 | 74 | 1016.2 |
| 20260905001108 | 64 | 178 | 4.0 | 7.0 | 0.00 | 0.28 | 0.28 | 74 | 1016.2 |
| 20260905000603 | 64 | 166 | 2.0 | 5.0 | 0.00 | 0.28 | 0.28 | 74 | 1016.2 |
| 20260905000100 | 64 | 210 | 3.0 | 3.0 | 0.00 | 0.28 | 0.28 | 75 | 1015.9 |
| 20260904235554 | 64 | 178 | 2.0 | 3.0 | 0.00 | 0.28 | 0.28 | 74 | 1016.2 |
| 20260904235054 | 64 | 176 | 4.0 | 5.0 | 0.00 | 0.28 | 0.28 | 76 | 1016.2 |
| 20260904234549 | 64 | 206 | 0.0 | 0.0 | 0.00 | 0.28 | 0.28 | 79 | 1016.2 |
| 20260904234044 | 63 | 194 | 4.0 | 6.0 | 0.00 | 0.28 | 0.28 | 78 | 1016.2 |
| 20260904233539 | 63 | 207 | 0.0 | 0.0 | 0.00 | 0.28 | 0.28 | 79 | 1016.2 |
| 20260904233035 | 62 | 140 | 0.0 | 0.0 | 0.00 | 0.28 | 0.28 | 82 | 1016.2 |
| 20260904232532 | 61 | 157 | 0.0 | 0.0 | 0.00 | 0.28 | 0.28 | 87 | 1016.2 |
| 20260904232028 | 62 | 194 | 0.0 | 0.0 | 0.00 | 0.28 | 0.28 | 92 | 1015.9 |
| 20260904231524 | 62 | 211 | 0.0 | 0.0 | 0.00 | 0.28 | 0.28 | 95 | 1015.9 |
| 20260904231019 | 61 | 219 | 0.0 | 0.0 | 0.00 | 0.28 | 0.28 | 94 | 1015.9 |
| 20260904230518 | 62 | 191 | 0.0 | 0.0 | 0.00 | 0.28 | 0.28 | 94 | 1015.9 |
| 20260904230013 | 61 | 244 | 0.0 | 0.0 | 0.00 | 0.28 | 0.28 | 94 | 1015.9 |
| 20260904225510 | 60 | 219 | 0.0 | 0.0 | 0.00 | 0.28 | 0.28 | 95 | 1016.2 |
| 20260904225009 | 59 | 207 | 0.0 | 0.0 | 0.00 | 0.28 | 0.28 | 95 | 1015.9 |
| 20260904224500 | 59 | 204 | 0.0 | 0.0 | 0.00 | 0.28 | 0.28 | 96 | 1015.9 |
| 20260904224000 | 60 | 190 | 0.0 | 0.0 | 0.00 | 0.28 | 0.28 | 95 | 1015.9 |
| 20260904223458 | 60 | 210 | 0.0 | 0.0 | 0.00 | 0.28 | 0.28 | 98 | 1015.9 |
| 20260904222955 | 59 | 207 | 0.0 | 0.0 | 0.00 | 0.28 | 0.28 | 97 | 1015.9 |
| 20260904222450 | 59 | 193 | 0.0 | 0.0 | 0.00 | 0.28 | 0.28 | 97 | 1016.2 |
| 20260904221950 | 59 | 188 | 0.0 | 0.0 | 0.00 | 0.28 | 0.28 | 97 | 1015.9 |
| 20260904221444 | 59 | 209 | 0.0 | 0.0 | 0.00 | 0.28 | 0.28 | 97 | 1016.2 |
| 20260904220940 | 59 | 210 | 0.0 | 0.0 | 0.05 | 0.28 | 0.28 | 97 | 1016.2 |
| 20260904220439 | 59 | 206 | 0.0 | 0.0 | 0.05 | 0.28 | 0.28 | 97 | 1015.5 |
| 20260904215935 | 58 | 210 | 0.0 | 0.0 | 0.12 | 0.28 | 0.28 | 97 | 1015.9 |
| 20260904215430 | 58 | 201 | 0.0 | 1.0 | 0.12 | 0.27 | 0.27 | 97 | 1015.9 |
| 20260904214925 | 58 | 200 | 0.0 | 0.0 | 0.00 | 0.25 | 0.25 | 97 | 1015.9 |
| 20260904214421 | 58 | 191 | 0.0 | 0.0 | 0.07 | 0.25 | 0.25 | 96 | 1015.9 |
| 20260904213921 | 58 | 206 | 0.0 | 0.0 | 0.07 | 0.25 | 0.25 | 96 | 1015.5 |
| 20260904213414 | 58 | 211 | 0.0 | 0.0 | 0.07 | 0.24 | 0.24 | 96 | 1015.9 |
| 20260904212911 | 58 | 202 | 0.0 | 0.0 | 0.12 | 0.24 | 0.24 | 95 | 1015.9 |
| 20260904212409 | 58 | 204 | 0.0 | 0.0 | 0.05 | 0.23 | 0.23 | 95 | 1015.9 |
| 20260904211906 | 58 | 212 | 0.0 | 0.0 | 0.12 | 0.23 | 0.23 | 94 | 1015.9 |
| 20260904211400 | 58 | 194 | 0.0 | 0.0 | 0.07 | 0.22 | 0.22 | 92 | 1016.2 |
| 20260904210855 | 59 | 194 | 3.0 | 8.0 | 0.05 | 0.21 | 0.21 | 90 | 1015.9 |
| 20260904210355 | 61 | 187 | 4.0 | 6.0 | 0.05 | 0.21 | 0.21 | 87 | 1015.9 |
| 20260904205851 | 63 | 214 | 9.0 | 10.0 | 0.00 | 0.20 | 0.20 | 80 | 1015.9 |
| 20260904205347 | 64 | 114 | 7.0 | 9.0 | 0.00 | 0.20 | 0.20 | 72 | 1015.9 |
| 20260904204843 | 64 | 204 | 5.0 | 6.0 | 0.00 | 0.20 | 0.20 | 73 | 1015.2 |
| 20260904204339 | 64 | 130 | 3.0 | 5.0 | 0.00 | 0.20 | 0.20 | 73 | 1015.2 |
| 20260904203835 | 64 | 131 | 5.0 | 7.0 | 0.00 | 0.20 | 0.20 | 72 | 1015.2 |
| 20260904203331 | 65 | 132 | 4.0 | 5.0 | 0.00 | 0.20 | 0.20 | 72 | 1015.2 |
| 20260904202826 | 66 | 177 | 2.0 | 3.0 | 0.00 | 0.20 | 0.20 | 72 | 1015.2 |
| 20260904202323 | 66 | 168 | 4.0 | 6.0 | 0.00 | 0.20 | 0.20 | 72 | 1015.2 |
| 20260904201819 | 67 | 142 | 6.0 | 8.0 | 0.00 | 0.20 | 0.20 | 69 | 1015.2 |
| 20260904201319 | 66 | 145 | 2.0 | 3.0 | 0.00 | 0.20 | 0.20 | 73 | 1015.2 |
| 20260904200814 | 64 | 133 | 2.0 | 5.0 | 0.00 | 0.20 | 0.20 | 75 | 1015.2 |
| 20260904200308 | 64 | 172 | 3.0 | 5.0 | 0.00 | 0.20 | 0.20 | 77 | 1015.2 |
| 20260904195808 | 63 | 191 | 3.0 | 5.0 | 0.00 | 0.20 | 0.20 | 79 | 1015.5 |
| 20260904195306 | 62 | 137 | 3.0 | 3.0 | 0.00 | 0.20 | 0.20 | 81 | 1015.5 |
| 20260904194801 | 63 | 147 | 5.0 | 7.0 | 0.00 | 0.20 | 0.20 | 81 | 1015.2 |
| 20260904194300 | 62 | 218 | 1.0 | 1.0 | 0.00 | 0.20 | 0.20 | 84 | 1015.2 |
| 20260904193755 | 62 | 197 | 0.0 | 0.0 | 0.00 | 0.20 | 0.20 | 86 | 1015.5 |
| 20260904193250 | 62 | 204 | 1.0 | 2.0 | 0.00 | 0.20 | 0.20 | 86 | 1015.5 |
| 20260904192745 | 61 | 231 | 1.0 | 2.0 | 0.00 | 0.20 | 0.20 | 88 | 1015.5 |
| 20260904192241 | 61 | 197 | 1.0 | 2.0 | 0.00 | 0.20 | 0.20 | 88 | 1015.9 |
| 20260904191738 | 61 | 208 | 0.0 | 0.0 | 0.00 | 0.20 | 0.20 | 89 | 1015.9 |
| 20260904191234 | 60 | 195 | 1.0 | 1.0 | 0.00 | 0.20 | 0.20 | 89 | 1015.5 |
| 20260904190725 | 59 | 151 | 3.0 | 3.0 | 0.00 | 0.20 | 0.20 | 90 | 1015.5 |
| 20260904190220 | 59 | 169 | 2.0 | 3.0 | 0.00 | 0.20 | 0.20 | 91 | 1015.5 |
| 20260904185716 | 59 | 179 | 4.0 | 5.0 | 0.00 | 0.20 | 0.20 | 94 | 1015.9 |
| 20260904185211 | 60 | 226 | 0.0 | 1.0 | 0.00 | 0.20 | 0.20 | 97 | 1015.9 |
| 20260904184709 | 59 | 209 | 1.0 | 2.0 | 0.00 | 0.20 | 0.20 | 98 | 1015.9 |
| 20260904184206 | 58 | 202 | 0.0 | 0.0 | 0.00 | 0.20 | 0.20 | 99 | 1015.9 |
| 20260904183701 | 59 | 175 | 1.0 | 2.0 | 0.00 | 0.20 | 0.20 | 99 | 1015.5 |
| 20260904183155 | 59 | 205 | 0.0 | 0.0 | 0.00 | 0.20 | 0.20 | 99 | 1015.5 |
| 20260904182651 | 59 | 260 | 1.0 | 1.0 | 0.00 | 0.20 | 0.20 | 99 | 1015.5 |
| 20260904182146 | 58 | 217 | 1.0 | 2.0 | 0.00 | 0.20 | 0.20 | 99 | 1015.2 |
| 20260904181641 | 58 | 225 | 0.0 | 1.0 | 0.00 | 0.20 | 0.20 | 99 | 1015.2 |
| 20260904181135 | 58 | 206 | 0.0 | 0.0 | 0.00 | 0.20 | 0.20 | 99 | 1015.2 |
| 20260904180631 | 58 | 263 | 0.0 | 1.0 | 0.00 | 0.20 | 0.20 | 99 | 1015.5 |
| 20260904180120 | 59 | 219 | 0.0 | 1.0 | 0.00 | 0.20 | 0.20 | 99 | 1015.2 |
| 20260904175614 | 59 | 243 | 0.0 | 1.0 | 0.00 | 0.20 | 0.20 | 99 | 1015.2 |
| 20260904175112 | 58 | 224 | 1.0 | 1.0 | 0.00 | 0.20 | 0.20 | 99 | 1015.2 |
| 20260904174607 | 58 | 227 | 0.0 | 1.0 | 0.00 | 0.20 | 0.20 | 99 | 1015.2 |
| 20260904174104 | 59 | 231 | 1.0 | 1.0 | 0.00 | 0.20 | 0.20 | 99 | 1015.5 |
| 20260904173604 | 58 | 215 | 0.0 | 0.0 | 0.00 | 0.20 | 0.20 | 99 | 1015.2 |
| 20260904173059 | 57 | 214 | 1.0 | 1.0 | 0.00 | 0.20 | 0.20 | 99 | 1015.2 |
| 20260904172555 | 58 | 247 | 1.0 | 1.0 | 0.00 | 0.20 | 0.20 | 99 | 1015.2 |
| 20260904172054 | 58 | 282 | 2.0 | 2.0 | 0.00 | 0.20 | 0.20 | 99 | 1014.9 |
| 20260904171549 | 58 | 224 | 0.0 | 0.0 | 0.00 | 0.20 | 0.20 | 99 | 1014.9 |
| 20260904171045 | 57 | 225 | 0.0 | 0.0 | 0.00 | 0.20 | 0.20 | 99 | 1014.9 |
| 20260904170540 | 57 | 216 | 0.0 | 1.0 | 0.00 | 0.20 | 0.20 | 99 | 1014.9 |
| 20260904170037 | 57 | 243 | 2.0 | 2.0 | 0.00 | 0.20 | 0.20 | 99 | 1014.9 |
| 20260904165534 | 57 | 241 | 0.0 | 0.0 | 0.00 | 0.20 | 0.20 | 99 | 1014.9 |
| 20260904165029 | 58 | 228 | 0.0 | 0.0 | 0.00 | 0.20 | 0.20 | 99 | 1014.9 |
| 20260904164524 | 57 | 227 | 0.0 | 1.0 | 0.00 | 0.20 | 0.20 | 99 | 1014.9 |
| 20260904164020 | 57 | 214 | 0.0 | 0.0 | 0.00 | 0.20 | 0.20 | 99 | 1014.9 |